This is the latest recevied weather packets stored in our database for station/object CE7LGA-10. If no packets are shown the sender has not sent any weather packets the latest 10 day(s).
| Time | Temp. | Humidity | Pressure | Rain* | Wind** | Luminosity | Snow |
|---|---|---|---|---|---|---|---|
| 1787506703 | 15.56° C | 66% | 1006.6 hPa | - | - | - | - |
| 1787505803 | 15° C | 65% | 1006.7 hPa | - | - | - | - |
| 1787504903 | 13.89° C | 64% | 1007 hPa | - | - | - | - |
| 1787504002 | 13.89° C | 63% | 1007 hPa | - | - | - | - |
| 1787503105 | 13.89° C | 62% | 1007.4 hPa | - | - | - | - |
| 1787502205 | 13.89° C | 62% | 1007.5 hPa | - | - | - | - |
| 1787501305 | 13.33° C | 61% | 1007.7 hPa | - | - | - | - |
| 1787500405 | 13.33° C | 62% | 1008 hPa | - | - | - | - |
| 1787499505 | 12.78° C | 62% | 1008 hPa | - | - | - | - |
| 1787498605 | 12.78° C | 63% | 1008.1 hPa | - | - | - | - |
| 1787497705 | 12.22° C | 64% | 1008.4 hPa | - | - | - | - |
| 1787496805 | 11.11° C | 65% | 1008.2 hPa | - | - | - | - |
| 1787495904 | 11.11° C | 65% | 1008.4 hPa | - | - | - | - |
| 1787495004 | 10° C | 65% | 1008.6 hPa | - | - | - | - |
| 1787494104 | 9.44° C | 64% | 1008.5 hPa | - | - | - | - |
| 1787493204 | 8.89° C | 65% | 1008.5 hPa | - | - | - | - |
| 1787492304 | 8.89° C | 65% | 1008.4 hPa | - | - | - | - |
| 1787491404 | 8.33° C | 65% | 1008.2 hPa | - | - | - | - |
| 1787490503 | 8.33° C | 65% | 1008.3 hPa | - | - | - | - |
| 1787489603 | 8.33° C | 64% | 1008.2 hPa | - | - | - | - |
| 1787488703 | 8.33° C | 64% | 1007.9 hPa | - | - | - | - |
| 1787487803 | 8.33° C | 64% | 1007.8 hPa | - | - | - | - |
| 1787486002 | 8.33° C | 64% | 1008 hPa | - | - | - | - |
| 1787485101 | 8.33° C | 64% | 1008 hPa | - | - | - | - |
| 1787484201 | 8.89° C | 64% | 1008.2 hPa | - | - | - | - |
* Rain since midnight (hover to see other rain measurements)
** Current wind speed in m/s (hover to see current wind gust speed)